Weather History for New Haven, CT

Change the Weather History Date:

Friday, November 30, 2012

  Actual Average Record
Temperature  
Mean Temperature 38 °F -  
Max Temperature 46 °F 45 °F 62 °F (2001)
Min Temperature 30 °F 32 °F 5 °F (1989)
Degree Days  
Heating Degree Days 27    
Moisture  
Dew Point 25 °F    
Average Humidity 61    
Maximum Humidity 82    
Minimum Humidity 47    
Precipitation  
Precipitation 0.00 in - - ()
Sea Level Pressure  
Sea Level Pressure 30.41 in    
Wind  
Wind Speed 5 mph (NNE)    
Max Wind Speed 14 mph    
Max Gust Speed -    
Visibility 10 miles    
Events      
Averages and records for this station are not official NWS values.
T = Trace of Precipitation, MM = Missing Value Source: NWS Daily Summary

Daily Weather History Graph

Daily Weather History Graph

Search for Another Location

Airport:

Trip Planner

Search our weather history database for the weather conditions in past years. The results will help you decide how hot, cold, wet, or windy it might be!

Date:

Astronomy

Nov. 30, 2012 Rise Set
Actual Time 6:57 AM EST 4:23 PM EST
Civil Twilight 6:26 AM EST 4:54 PM EST
Nautical Twilight 5:52 AM EST 5:28 PM EST
Astronomical Twilight 5:19 AM EST 6:01 PM EST
Moon 6:15 PM EST (11/30) 8:27 AM EST (11/30)
Length of Visible Light 10h 27m
Length of Day
9h 26m
Waning Gibbous, 96% of the Moon is Illuminated
Nov 30
Waning Gibbous
Dec 6
Last Quarter
Dec 13
New
Dec 20
First Quarter
Dec 28
Full

Hourly Weather History & Observations

Time (EST) Temp. Windchill Dew Point Humidity Pressure Visibility Wind Dir Wind Speed Gust Speed Precip Events Conditions
12:53 AM 41.0 °F 38.0 °F 26.1 °F 55% 30.30 in 10.0 mi West 4.6 mph - N/A   Clear
1:53 AM 41.0 °F 39.0 °F 26.1 °F 55% 30.30 in 10.0 mi Variable 3.5 mph - N/A   Clear
2:53 AM 39.9 °F - 26.1 °F 58% 30.30 in 10.0 mi Calm Calm - N/A   Clear
3:53 AM 37.9 °F - 25.0 °F 60% 30.30 in 10.0 mi Calm Calm - N/A   Clear
4:53 AM 30.0 °F - 21.0 °F 69% 30.32 in 9.0 mi Calm Calm - N/A   Clear
5:53 AM 30.0 °F - 23.0 °F 75% 30.34 in 8.0 mi Calm Calm - N/A   Clear
6:53 AM 30.0 °F 26.5 °F 24.1 °F 79% 30.37 in 8.0 mi North 3.5 mph - N/A   Scattered Clouds
7:53 AM 32.0 °F - 27.0 °F 82% 30.39 in 6.0 mi Calm Calm - N/A   Haze
8:53 AM 39.0 °F 35.7 °F 27.0 °F 62% 30.40 in 10.0 mi North 4.6 mph - N/A   Scattered Clouds
9:53 AM 42.1 °F 37.1 °F 26.1 °F 53% 30.42 in 10.0 mi NNE 8.1 mph - N/A   Overcast
10:53 AM 44.1 °F 39.0 °F 27.0 °F 51% 30.42 in 10.0 mi NNE 9.2 mph - N/A   Mostly Cloudy
11:53 AM 45.0 °F 40.6 °F 27.0 °F 49% 30.40 in 10.0 mi NNE 8.1 mph - N/A   Overcast
12:53 PM 46.0 °F 43.1 °F 27.0 °F 47% 30.40 in 10.0 mi NNE 5.8 mph - N/A   Overcast
1:53 PM 45.0 °F 41.2 °F 30.0 °F 56% 30.41 in 10.0 mi East 6.9 mph - N/A   Overcast
2:53 PM 43.0 °F 39.5 °F 30.0 °F 60% 30.42 in 10.0 mi East 5.8 mph - N/A   Overcast
3:53 PM 39.9 °F 33.9 °F 26.1 °F 58% 30.43 in 10.0 mi North 9.2 mph - N/A   Overcast
4:53 PM 37.9 °F 30.5 °F 26.1 °F 62% 30.43 in 10.0 mi NNE 11.5 mph - N/A   Overcast
5:53 PM 36.0 °F 28.0 °F 25.0 °F 64% 30.45 in 10.0 mi NNE 11.5 mph - N/A   Overcast
6:53 PM 35.1 °F 25.9 °F 24.1 °F 64% 30.48 in 10.0 mi NNE 13.8 mph - N/A   Overcast
7:53 PM 35.1 °F 27.9 °F 24.1 °F 64% 30.49 in 10.0 mi NE 9.2 mph - N/A   Overcast
8:21 PM 35.6 °F 28.6 °F 24.8 °F 65% 30.49 in 10.0 mi NNE 9.2 mph - N/A   Overcast
8:53 PM 35.1 °F 29.3 °F 25.0 °F 67% 30.49 in 10.0 mi NNE 6.9 mph - N/A   Overcast
9:53 PM 35.1 °F 30.1 °F 21.9 °F 59% 30.49 in 10.0 mi NE 5.8 mph - N/A   Overcast
10:53 PM 36.0 °F 30.3 °F 19.9 °F 52% 30.49 in 10.0 mi NE 6.9 mph - N/A   Overcast
11:53 PM 36.0 °F 30.3 °F 21.0 °F 55% 30.50 in 10.0 mi NE 6.9 mph - N/A   Overcast